Terminal Aerodrome Forecast
Issued by NWS

Home | Current Version | Previous Version | Text Only | Print | Product List | Glossary On
Versions: 1 2 3 4 5 6 7 8 9 10 11 12 13 14 15 16 17 18 19 20 21 22 23 24 25
000
FTUS45 KTFX 270500
TAFGTF
TAF
KGTF 270530Z 2706/2806 09008KT 1/2SM FZFG BKN002 WS020/25030KT
      TEMPO 2706/2708 4SM BR SCT002 BKN100
     FM270800 20015KT P6SM SCT060 BKN100
     FM271600 23020G30KT P6SM SCT100 BKN200
     FM280000 24028G35KT P6SM SCT100 SCT200=

USA.gov is the U.S. government's official web portal to all federal, state and local government web resources and services.